GFSNE_925_thetae_000.txt.gz
Theta_e
333 334 334 332 330 323 322 323 325 320 319 322 322 320 319 319 322 330 331 334 338 340 339 339 338 335 345 345 346 347 344 343 342 340 337 337 338 339
334 333 333 332 331 326 322 321 320 323 320 321 320 320 319 320 321 325 333 334 334 337 338 337 336 340 345 346 346 346 346 345 344 343 341 339 340 339
334 332 332 331 330 329 325 321 320 321 322 321 320 320 321 320 320 323 324 331 334 335 338 338 337 336 342 343 344 346 347 346 345 344 343 342 341 339
333 331 330 330 331 330 328 323 321 321 323 321 321 321 321 320 320 322 324 327 335 336 336 338 338 337 338 338 339 343 346 347 346 345 344 344 343 341
332 331 330 331 331 330 329 327 323 322 323 322 322 321 320 319 320 321 323 325 328 334 337 338 338 337 339 339 339 339 343 344 346 344 343 343 343 343
329 329 329 332 331 329 329 328 327 325 324 323 321 321 320 320 321 322 322 323 326 331 338 338 337 338 336 336 335 338 343 343 343 343 342 342 342 342
326 327 327 327 328 328 328 327 326 325 324 323 321 320 320 320 321 321 322 323 324 326 331 339 340 339 339 339 334 339 343 343 343 343 343 343 343 341
324 324 325 325 326 326 326 326 326 325 324 323 321 321 320 320 321 321 322 322 324 325 331 339 340 339 338 339 338 336 340 341 343 345 344 344 343 341
325 325 325 323 325 326 326 325 325 323 323 321 321 321 321 321 320 321 321 322 322 324 326 332 341 341 339 340 338 335 337 339 345 344 345 344 341 340
324 323 321 324 324 326 325 323 322 320 320 318 318 319 319 319 319 320 321 321 322 323 326 331 338 342 342 342 342 343 346 344 345 345 345 342 340 340
320 323 322 321 323 323 322 320 320 320 320 318 317 318 318 318 319 320 322 322 322 322 325 329 337 341 342 343 343 341 341 340 343 345 345 344 340 340
323 321 320 321 322 320 319 318 318 319 318 319 317 318 318 318 318 320 321 322 323 325 326 333 339 341 340 343 344 344 344 345 345 346 345 343 340 341
320 319 320 321 320 318 318 317 315 315 317 317 317 318 318 318 318 319 321 323 323 326 334 334 339 341 342 340 345 344 346 346 346 346 347 345 340 339
318 320 320 319 317 316 315 314 314 314 314 314 315 316 317 318 317 318 321 324 324 324 327 337 340 341 340 339 339 343 344 345 344 343 344 345 344 341
317 318 317 317 315 313 313 312 311 311 312 312 312 313 315 316 316 318 320 321 325 324 324 331 334 340 340 338 338 341 339 340 341 342 343 343 344 342
316 317 317 315 313 312 311 309 309 309 310 311 312 312 314 316 316 318 320 321 326 326 326 326 331 338 340 338 339 340 341 338 337 338 339 339 340 340
317 319 316 313 311 310 308 307 307 307 308 309 310 311 312 313 315 316 319 320 321 321 324 333 334 337 336 337 338 338 340 341 340 337 335 334 336 339
313 312 310 309 308 306 305 304 304 304 305 307 309 310 310 311 313 315 317 318 320 321 321 320 330 332 331 326 327 332 336 339 342 339 338 336 335 338
310 308 306 304 303 302 302 301 300 303 303 304 306 306 308 310 311 312 314 315 318 320 319 320 321 331 335 330 321 322 329 335 337 337 338 338 338 338
306 303 300 298 298 299 299 299 300 301 301 301 302 303 305 309 309 309 310 312 314 317 319 320 320 320 327 324 322 320 326 329 333 337 340 339 339 338
301 300 300 300 299 297 297 297 298 299 299 299 299 300 302 304 307 307 308 310 311 313 320 320 320 320 321 322 322 323 322 320 324 331 336 337 336 336
303 301 301 301 300 297 294 294 296 298 297 298 298 299 300 300 302 304 306 307 308 312 316 320 321 319 319 320 320 321 321 321 320 321 326 333 333 333
302 300 297 298 296 294 291 290 294 296 297 297 297 298 299 299 300 301 304 305 308 310 313 315 317 319 319 319 319 320 320 321 321 320 319 320 321 322

GFSNE_925_thetae_003.txt.gz
Theta_e
333 333 334 334 332 328 322 322 320 316 315 319 320 318 318 318 320 320 320 321 322 329 333 334 337 341 340 339 340 341 344 347 345 344 344 340 337 337
333 333 334 333 332 329 325 323 321 320 319 320 320 320 319 319 320 320 320 320 321 323 329 332 333 336 339 338 339 337 343 343 345 346 344 343 342 341
334 333 332 331 332 330 328 326 324 321 321 321 322 323 322 320 320 320 320 320 321 322 324 331 334 335 337 339 336 337 343 345 343 344 346 346 344 343
333 332 331 331 331 330 329 328 327 325 322 321 322 322 323 321 320 320 319 320 321 322 323 326 332 335 336 338 337 337 342 343 345 344 344 345 345 344
331 332 330 330 330 329 329 328 328 327 325 323 322 322 322 321 320 319 319 320 321 322 323 325 330 334 336 337 338 337 336 339 340 343 344 345 346 345
329 329 328 329 329 327 327 327 328 327 326 324 322 322 321 320 319 319 319 320 320 321 322 323 325 328 336 338 337 337 337 339 339 338 341 344 344 345
326 324 324 325 325 325 324 325 326 326 325 323 322 322 320 319 319 319 319 320 319 320 322 323 325 328 334 339 339 337 338 337 338 338 340 342 342 342
326 324 323 324 324 324 325 325 326 326 325 322 322 321 320 318 319 320 319 319 320 320 322 323 326 332 336 341 340 338 337 335 335 335 339 343 343 342
325 324 321 321 321 322 323 325 325 324 323 322 322 320 319 318 319 319 318 318 319 320 321 322 323 325 328 340 341 340 338 338 338 335 340 343 343 344
325 323 320 322 321 321 323 323 322 320 319 319 319 319 318 317 318 318 318 318 319 320 320 322 322 325 329 336 342 342 338 339 338 335 336 341 342 344
323 322 323 321 320 323 322 320 319 319 318 317 318 319 319 319 318 318 318 319 319 319 321 322 322 323 327 335 341 342 341 341 338 336 339 337 344 344
323 322 320 319 319 321 319 317 316 316 315 316 316 318 318 318 317 318 318 318 318 319 321 322 322 326 332 335 341 342 341 342 342 344 342 343 344 344
323 321 318 319 320 318 316 314 314 313 314 314 314 315 316 318 317 316 317 317 318 321 322 324 325 328 332 338 343 343 342 343 343 342 342 343 344 344
318 317 319 319 317 314 313 312 312 311 311 311 312 312 314 314 316 316 316 317 320 322 324 327 332 331 338 339 338 337 341 343 343 343 344 344 343 343
316 316 316 316 315 313 312 311 310 309 309 309 310 311 312 313 316 315 316 317 320 324 324 325 326 329 336 338 338 337 334 337 342 343 342 342 343 343
314 314 317 315 314 312 311 309 308 307 306 306 307 309 310 311 313 315 316 316 320 321 323 324 325 326 329 337 337 338 337 333 335 337 339 338 338 341
313 317 315 314 312 310 308 306 305 305 304 304 305 306 308 309 311 314 315 315 318 320 321 324 325 328 330 337 336 337 337 337 335 334 332 331 332 336
313 314 312 309 307 305 303 302 302 302 302 302 303 304 304 306 309 311 312 313 316 319 320 320 322 325 326 325 329 331 336 337 336 335 334 332 332 333
311 309 306 304 302 301 300 299 299 300 300 300 301 302 302 303 307 308 310 311 313 316 320 320 320 321 332 328 320 321 329 335 337 335 336 335 336 335
308 305 301 298 297 297 297 297 298 299 298 298 299 299 299 300 303 305 307 309 310 315 320 318 319 319 322 323 321 317 324 327 333 338 337 338 338 338
302 300 299 299 298 297 296 295 295 297 297 297 298 298 299 299 300 303 304 308 309 313 317 319 319 319 319 320 321 321 320 318 327 330 334 338 336 336
302 300 300 300 300 297 294 291 293 296 297 297 297 298 299 299 299 301 302 304 307 310 313 316 318 317 318 317 317 319 320 320 319 320 325 332 333 334
302 300 298 297 295 294 290 292 295 296 296 296 296 297 298 298 299 301 301 302 305 307 309 311 313 315 313 314 315 315 316 318 319 318 319 320 321 325

GFSNE_925_thetae_006.txt.gz
Theta_e
333 333 333 333 334 332 329 324 321 323 321 320 319 320 321 323 319 319 318 318 318 319 319 320 322 329 333 335 339 342 341 343 344 344 344 345 348 347
333 333 333 333 333 333 330 326 323 321 323 321 321 322 322 323 321 319 319 318 318 318 318 319 320 322 328 332 334 337 341 339 340 343 344 344 344 344
332 333 333 333 332 332 331 328 326 323 321 324 322 324 324 323 322 319 319 318 318 317 317 318 318 320 323 328 333 334 336 337 338 338 339 344 343 345
331 332 332 331 331 331 331 330 328 327 323 324 324 323 324 324 323 321 320 318 318 317 318 319 319 320 321 324 330 335 335 338 338 336 336 342 344 343
330 331 330 331 329 329 328 329 329 328 326 323 324 324 323 323 322 321 321 318 318 318 319 319 319 320 321 322 325 332 335 337 337 336 339 343 345 343
331 331 328 327 326 327 327 326 326 326 325 324 324 324 323 323 322 320 319 318 319 319 318 318 318 319 320 321 323 327 334 336 337 337 336 340 343 345
329 327 326 324 323 323 324 324 325 325 325 324 324 323 323 323 322 321 319 319 319 318 318 318 319 320 321 323 327 327 332 336 337 337 336 337 339 339
328 326 325 324 322 321 324 323 323 324 325 324 324 323 322 322 320 319 319 319 321 318 318 318 318 320 321 322 322 330 332 335 337 337 336 338 339 339
328 327 326 324 320 320 320 321 323 324 323 322 322 321 321 320 319 319 318 318 319 318 318 318 318 319 320 322 322 324 330 337 339 337 336 336 338 337
329 328 325 323 321 322 320 321 322 321 320 318 317 316 316 317 318 318 318 318 318 318 318 319 319 319 320 322 322 323 329 337 340 339 337 335 335 336
328 325 322 322 322 320 320 321 320 320 318 317 315 315 315 317 317 316 317 318 318 318 318 318 318 319 320 322 322 324 327 333 340 340 338 336 337 335
325 322 322 320 319 318 319 318 317 316 314 314 313 314 313 314 317 316 316 317 317 317 317 318 319 320 322 322 322 324 329 333 339 341 338 338 338 335
323 323 320 317 319 319 317 315 314 312 311 310 311 311 312 313 314 316 316 315 315 317 317 318 319 322 322 326 330 327 330 336 340 341 340 338 335 338
323 319 316 317 316 317 315 313 311 309 309 309 310 310 310 311 312 314 315 314 315 316 316 322 322 323 324 325 329 335 337 338 339 340 341 340 339 338
318 316 315 314 314 315 312 311 308 308 307 306 306 307 307 308 309 313 314 314 316 315 319 322 325 325 326 329 336 333 332 333 335 336 338 338 339 339
316 314 313 316 315 313 311 308 306 305 304 303 303 304 306 306 306 310 311 313 314 316 319 321 324 324 325 326 333 336 335 333 331 332 334 334 338 340
313 312 314 314 313 311 308 306 304 303 302 301 301 301 303 302 304 308 310 311 314 316 319 320 323 325 327 327 333 336 336 335 334 333 330 329 332 336
310 312 311 310 308 305 304 302 301 300 300 299 299 300 300 300 301 306 308 310 312 315 319 319 320 323 325 324 324 327 336 336 335 333 331 331 330 333
311 310 308 306 303 301 299 298 298 298 298 298 298 298 299 299 300 303 305 308 310 313 317 318 319 320 326 327 318 318 323 335 336 332 332 332 333 333
309 307 304 300 298 298 297 296 296 296 297 297 297 298 298 298 300 301 303 304 308 313 316 316 316 318 319 321 321 319 320 324 334 334 334 335 337 337
304 302 299 299 299 298 297 294 292 295 296 296 297 297 298 298 299 300 302 303 307 311 314 314 315 316 316 317 317 318 319 319 326 330 335 336 336 336
302 301 300 300 300 297 294 291 291 296 296 296 296 297 297 298 298 299 300 301 303 307 309 312 316 317 314 315 315 314 315 317 319 320 327 330 334 339
302 301 299 298 295 294 291 293 295 295 295 295 296 296 297 297 298 298 299 301 302 303 305 307 310 312 311 312 312 313 312 313 314 315 316 318 319 329

GFSNE_925_thetae_009.txt.gz
Theta_e
337 337 336 335 335 335 335 333 331 332 331 326 325 325 325 325 325 326 325 322 318 318 318 317 317 317 318 319 323 330 335 339 341 345 345 343 345 346
335 337 337 335 335 335 334 333 331 330 332 325 325 325 326 327 326 325 326 323 321 319 318 317 317 317 317 318 319 322 328 333 337 341 342 344 344 344
337 336 336 333 334 333 333 333 332 330 330 327 325 327 327 327 328 327 327 326 323 322 320 317 317 318 318 318 318 319 322 328 333 336 340 339 341 344
335 336 336 335 336 334 333 333 331 331 330 329 327 327 327 328 327 327 326 325 324 323 321 318 319 319 318 317 318 319 320 323 328 334 336 338 338 339
334 335 335 335 335 332 332 331 330 329 329 329 327 325 326 327 326 326 325 325 324 322 321 320 320 320 318 318 318 319 319 320 323 331 334 336 337 338
332 334 334 329 332 331 331 331 330 329 328 328 326 326 325 325 325 325 324 323 323 322 322 321 321 320 319 320 320 320 320 321 322 325 333 335 337 337
333 331 333 329 326 325 326 327 329 329 327 326 325 325 325 324 324 324 324 323 322 321 321 321 321 320 320 320 321 321 322 323 326 324 330 334 337 337
334 334 332 327 325 324 322 321 323 326 326 327 326 326 325 324 324 323 322 321 322 321 322 321 320 320 319 320 320 320 321 324 324 328 328 334 336 337
334 333 331 329 327 325 322 321 323 323 323 325 325 324 323 322 321 320 319 320 320 321 320 321 320 319 319 319 320 320 320 321 321 322 331 332 336 337
333 332 330 329 329 323 324 325 325 325 324 322 321 321 320 318 317 318 317 317 318 319 320 322 319 319 318 318 319 319 319 320 322 322 325 334 336 337
333 329 327 326 323 322 320 323 324 323 322 318 316 316 314 314 315 315 317 319 319 320 318 317 317 317 317 318 319 320 320 321 321 322 324 334 339 337
330 327 324 322 322 320 319 322 322 322 319 317 317 316 316 316 316 317 318 318 319 318 317 316 316 317 318 318 319 322 324 322 323 322 327 334 339 339
329 327 324 321 317 318 319 321 320 315 315 315 315 315 315 316 317 317 316 317 318 317 316 316 317 317 318 319 320 321 324 326 326 325 327 331 338 339
328 326 321 317 316 315 317 316 314 312 314 314 314 314 314 313 313 313 313 315 317 315 315 315 317 317 320 321 324 324 327 329 332 334 332 334 339 340
323 320 317 315 314 314 315 313 312 313 312 312 312 311 310 309 311 310 311 315 316 316 315 316 319 321 323 325 325 328 330 333 335 336 335 335 339 336
318 317 316 314 315 317 314 312 310 310 308 308 308 307 307 307 307 307 311 314 314 316 315 317 318 320 324 325 326 327 331 333 333 332 334 332 333 335
317 316 318 318 317 316 312 310 309 308 307 306 306 305 305 305 305 306 311 314 315 315 315 317 317 320 323 323 326 326 335 333 330 329 330 328 330 333
314 316 317 316 316 314 312 309 307 305 305 303 303 303 303 303 304 306 311 314 315 315 316 317 317 318 322 321 320 317 322 335 332 331 331 330 329 330
314 315 315 314 312 309 307 305 305 303 301 302 302 302 302 302 303 307 309 309 310 312 316 316 316 316 319 320 320 320 317 319 332 332 333 333 333 332
313 313 313 310 307 305 304 303 302 300 300 301 301 301 301 302 303 305 307 306 309 310 315 317 315 313 315 317 318 316 315 316 321 332 332 333 334 336
310 309 307 305 305 304 303 300 298 298 298 300 300 301 301 301 302 303 305 307 308 307 311 314 312 314 314 315 316 315 314 315 314 317 326 334 336 332
307 306 305 304 304 302 299 297 297 299 300 300 300 300 300 301 301 302 304 306 308 309 310 309 312 313 312 313 314 314 313 312 314 315 317 316 327 338
307 306 304 303 300 298 296 297 298 299 299 299 299 299 300 300 300 301 302 304 306 308 306 308 310 308 309 309 312 312 311 310 311 312 313 316 315 334